NOAA 16 DEB, 41659

Orbit data source: Space-Track

NOAA 16 DEB, 41659 is space debris in SSO originally from a launch on Thu, 21 Sep 2000 UTC launched from the Air Force Western Test Range (AFWTR). Debris objects in space refer to the collection of defunct objects orbiting the Earth. Examples of debris include non-operational satellites, rocket bodies, and fragments generated from explosions, collisions, or faulty payload assembly.

Loading next visibility...
Identifier
41659, 2000-055NY
Orbit
SSO
Country
Flag of USUS
Related business
Manufacturer
Unknown
Mission
Spacecraft
Bus & Motor
Unknown
Mass
Unknown
Launch date (UTC)
2000-09-21 (26 years ago)
Launch vehicle
Unknown
Launch site
Air Force Western Test Range (AFWTR)
Object type
Payload
Rocket body
Debris
Shape & HBR
Unknown shape, 0.1 m
Radar Cross Section
Medium (>0.1 m² and <1 m²)

Expand to show TLE details & history
Last TLE update: 4 days ago

TLE from 4 days ago
0 NOAA 16 DEB
1 41659U 00055NY  26169.23476719  .00006550  00000-0  17138-2 0  9996
2 41659  98.8777 314.0870 0013918 130.6914 229.5490 14.49628326527440
Epoch: 2026-06-18T05:38Z
TLE epoch observation values (Epoch: 2026-06-18T05:38:03.885Z)
Latitude
Longitude
-36.9102°
Altitude
736.237 km
Speed
7.483 km/s
True Right ascension
20h 56m 20s
True Declination
0° 00' 00"
Sunlit
Object was in full shadow at epoch
Visualization orbit readout
Latitude
Unknown
Longitude
Unknown
Altitude
Unknown
Speed
Unknown
Apparent Right ascension
Unknown
Apparent Declination
Unknown
Sunlit
N/A
Visualization observer readout
Local Sidereal Time
21:42:54
Azimuth
Unknown
Elevation
Unknown
Doppler factor
Unknown
Orbital elements
Apogee altitude
733.875 km
Perigee altitude
714.105 km
Semi-major axis
7,102.127 km
Eccentricity
0.00139
Inclination
98.8777°
RAAN
314.087°
Arg. of periapsis
130.6914°
True anomaly
229.42777°
Mean anomaly
229.549°
Eccentric anomaly
229.48837°
Mean motion
3.62627 °/min
Orbital period
99.28 mins
BSTAR
0.0017138
Loading maneuver chart data...
Computing Atmospheric mass density...
Loading historical data...
Loading historical data...
Loading historical data...
Loading historical data...
Loading historical data...
Loading historical data...
Loading historical data...

Documentation

Showing up to 5 results
|